NOAA 16 DEB, 41055

Orbit data source: Space-Track

NOAA 16 DEB, 41055 is space debris in SSO originally from a launch on Thu, 21 Sep 2000 UTC launched from the Air Force Western Test Range (AFWTR). Debris objects in space refer to the collection of defunct objects orbiting the Earth. Examples of debris include non-operational satellites, rocket bodies, and fragments generated from explosions, collisions, or faulty payload assembly.

Loading next visibility...
Identifier
41055, 2000-055N
Orbit
SSO
Country
Flag of USUS
Related business
Manufacturer
Unknown
Mission
Spacecraft
Bus & Motor
Unknown
Mass
Unknown
Launch date (UTC)
2000-09-21 (25 years ago)
Launch vehicle
Unknown
Launch site
Air Force Western Test Range (AFWTR)
Object type
Payload
Rocket body
Debris
Shape & HBR
Unknown shape, 0.2 m
Radar Cross Section
Small (<0.1 m²)

Expand to show TLE details & history
Last TLE update: 7 hours ago

TLE from 7 hours ago
0 NOAA 16 DEB
1 41055U 00055N   25293.26885154  .00009497  00000-0  34320-2 0  9998
2 41055  98.7862  39.0365 0016814 188.4762 171.6140 14.33651761513173
Epoch: 2025-10-20T06:27Z
TLE epoch observation values (Epoch: 2025-10-20T06:27:08.773Z)
Latitude
-0.00002°
Longitude
-86.72364°
Altitude
794.39 km
Speed
7.45 km/s
True Right ascension
02h 36m 08s
True Declination
0° 00' 00"
Sunlit
Object was in full shadow at epoch
Visualization orbit readout
Latitude
Unknown
Longitude
Unknown
Altitude
Unknown
Speed
Unknown
Apparent Right ascension
Unknown
Apparent Declination
Unknown
Sunlit
N/A
Visualization observer readout
Local Sidereal Time
08:29:09
Azimuth
Unknown
Elevation
Unknown
Doppler factor
Unknown
Orbital elements
Apogee altitude
788.725 km
Perigee altitude
764.664 km
Semi-major axis
7,154.831 km
Eccentricity
0.00168
Inclination
98.7862°
RAAN
39.0365°
Arg. of periapsis
188.4762°
True anomaly
171.64204°
Mean anomaly
171.614°
Eccentric anomaly
171.62803°
Mean motion
3.58628 °/min
Orbital period
100.38 mins
BSTAR
0.003432
Loading maneuver chart data...
Computing Atmospheric mass density...
Loading historical data...
Loading historical data...
Loading historical data...
Loading historical data...
Loading historical data...
Loading historical data...
Loading historical data...

Documentation

Showing up to 5 results
|